Torna al catalogo

EPSILON 5 PBS

AttivoSSO
NORAD 49404·ROCKET BODY·🇯🇵 Japan
Questo nome del satellite non è ancora stato confermato da fonti ufficiali.

Lanciato Nov 9, 2021 da Uchinoura Space Center

Loading…

Prossimi Passaggi (prossime 24 ore)

TLE

AggiornatoSource: Space-Track

Epoca: Sep 14, 2026, 09:10 UTC

1 49404U 21102K   26257.38212505  .00003379  00000-0  14677-3 0  9995
2 49404  97.3169 296.3195 0016428 262.1282  97.8090 15.22862355267453

Traccia EPSILON 5 PBS in tempo reale con AllMySat

Download on the App Store